Nenana, AK

3:39 AM AKDT on July 26, 2017 (GMT -0800)
Nenana Municipal

Weather History for PANN - May, 2013

Change the Weather History Date:

Monday, May 13, 2013

  Actual Average Record
Temperature  
Mean Temperature 36 °F -  
Max Temperature 50 °F 55 °F 83 °F (1993)
Min Temperature 23 °F 34 °F 23 °F (2013)
Degree Days  
Heating Degree Days 28    
Moisture  
Dew Point 11 °F    
Average Humidity 46    
Maximum Humidity 95    
Minimum Humidity 29    
Precipitation  
Precipitation 0.16 in - - ()
Sea Level Pressure  
Sea Level Pressure 29.69 in    
Wind  
Wind Speed 10 mph (WNW)    
Max Wind Speed 17 mph    
Max Gust Speed 21 mph    
Visibility 10 miles    
Events Rain    
Averages and records for this station are not official NWS values.
T = Trace of Precipitation, MM = Missing Value Source: NWS Daily Summary

Daily Weather History Graph

Daily Weather History Graph

Search for Another Location

Airport or City:

Trip Planner

Search our weather history database for the weather conditions in past years. The results will help you decide how hot, cold, wet, or windy it might be!

Date:

Astronomy

May. 13, 2013 Rise Set
Actual Time 4:42 AM AKDT 11:05 PM AKDT
Civil Twilight 2:58 AM AKDT 12:54 AM AKDT
Nautical Twilight Sun does not set Sun does not set
Astronomical Twilight Sun does not set Sun does not set
Moon 7:29 AM AKDT (5/13) 1:45 AM AKDT (5/13)
Length of Visible Light 21h 56m
Length of Day
18h 23m
Waxing Crescent, 13% of the Moon is Illuminated
May 13
Waxing Crescent
May 17
First Quarter
May 24
Full
May 31
Last Quarter
Jun 8
New

Hourly Weather History & Observations

Time (AKDT) Temp. Windchill Dew Point Humidity Pressure Visibility Wind Dir Wind Speed Gust Speed Precip Events Conditions
12:53 AM 33.1 °F 23.9 °F 6.1 °F 32% 29.60 in 10.0 mi WNW 12.7 mph 18.4 mph N/A   Overcast
1:53 AM 28.9 °F 18.6 °F -0.0 °F 29% 29.62 in 10.0 mi WNW 12.7 mph 20.7 mph N/A   Overcast
2:53 AM 26.1 °F 16.8 °F 1.0 °F 34% 29.65 in 10.0 mi WNW 9.2 mph 18.4 mph N/A   Overcast
3:53 AM 23.0 °F 11.7 °F 1.9 °F 40% 29.66 in 10.0 mi WNW 11.5 mph 19.6 mph N/A   Overcast
4:53 AM 19.9 °F 9.3 °F 1.9 °F 46% 29.69 in 10.0 mi WNW 9.2 mph 18.4 mph N/A   Mostly Cloudy
5:53 AM 19.0 °F 10.0 °F 3.0 °F 50% 29.70 in 10.0 mi West 6.9 mph - N/A   Clear
6:53 AM 19.9 °F 11.1 °F 1.9 °F 46% 29.72 in 10.0 mi Variable 6.9 mph - N/A   Clear
7:53 AM 19.9 °F 8.6 °F 3.0 °F 48% 29.73 in 10.0 mi WNW 10.4 mph 18.4 mph N/A   Clear
8:53 AM 21.0 °F 9.9 °F 1.9 °F 44% 29.73 in 10.0 mi West 10.4 mph 16.1 mph N/A   Clear
9:53 AM 23.0 °F 14.7 °F 3.0 °F 42% 29.73 in 10.0 mi Variable 6.9 mph - N/A   Clear
10:53 AM 24.1 °F 15.2 °F 1.0 °F 37% 29.72 in 10.0 mi WNW 8.1 mph - N/A   Clear
12:53 PM 27.0 °F 19.5 °F 5.0 °F 39% 29.70 in 10.0 mi West 6.9 mph - N/A   Clear
1:53 PM 28.0 °F 19.3 °F 6.1 °F 39% 29.69 in 10.0 mi West 9.2 mph 16.1 mph N/A   Clear
2:53 PM 30.0 °F 24.1 °F 7.0 °F 38% 29.68 in 10.0 mi Variable 5.8 mph - N/A   Clear
4:53 PM 33.1 °F 27.7 °F 8.1 °F 35% 29.66 in 10.0 mi SSW 5.8 mph - N/A   Clear
5:53 PM 33.1 °F 30.0 °F 7.0 °F 34% 29.65 in 10.0 mi SW 3.5 mph - N/A   Clear
6:53 PM 34.0 °F 29.8 °F 8.1 °F 34% 29.65 in 10.0 mi Variable 4.6 mph - N/A   Clear
7:53 PM 34.0 °F 29.8 °F 8.1 °F 34% 29.64 in 10.0 mi WNW 4.6 mph - N/A   Clear
8:53 PM 33.1 °F - 8.1 °F 35% 29.64 in 10.0 mi Calm Calm - N/A   Clear
9:53 PM 33.1 °F 27.7 °F 8.1 °F 35% 29.65 in 10.0 mi WNW 5.8 mph - N/A   Clear
10:53 PM 30.9 °F 26.2 °F 9.0 °F 40% 29.66 in 10.0 mi NW 4.6 mph - N/A   Partly Cloudy
11:53 PM 28.9 °F - 9.0 °F 43% 29.67 in 10.0 mi Calm Calm - N/A   Clear